Profile Level Friends Recent Game Playtime Games Achievements Avg. Completion Perfect Games Added Updated
Apostila 9 69 85
3,732h + 44m 674 3,076 36.13% 29 2020-10-01 12:09:57 2020-10-01 12:11:19
Kevin Blüml 8 15 2020-10-01 12:01:49 2020-10-01 12:01:53
谜语 8 108 7
8,049h +10h 22m 339 2,868 55.86% 31 2020-10-01 11:07:22 2020-10-01 11:08:07
❤ Evil Flower ❤ 3 68 2020-10-01 10:06:48 2020-10-01 10:06:54
Pa4ka 1 20 97
929h 44m +46h 4m 5 2,360 66.86% 2 2020-10-01 08:01:43 2020-10-01 08:02:07
Goose74 9 8 1
760h 38m +5h 13m 185 473 18.77% 2020-10-01 07:54:45 2020-10-01 07:55:08
NicRULZ 14 53 66
3,800h +30h 15m 748 2,052 39.92% 10 2020-10-01 07:48:20 2020-10-01 07:49:19
MrVeins 3 66 46
6,277h +165h 6m 134 1,508 33.67% 5 2020-10-01 05:29:53 2020-10-01 05:30:21
Bob Stone cs.money 3 25 36
3,386h +55h 38m 43 508 30.52% 2020-10-01 04:31:16 2020-10-01 04:31:38
Aacryon 6 168
10,893h +125h 56m 1,154 6,798 36.97% 22 2020-10-01 02:15:36 2020-10-01 02:17:56
fonphon27 8 5 4 2020-10-01 01:55:21 2020-10-01 01:55:25
WolfyTheDemon 🐺 8 23 8
3,454h +18h 40m 64 956 49.54% 5 2020-10-01 01:21:44 2020-10-01 01:22:05
天痕幻瞳 1 59 20
4,022h +65h 9m 343 6,163 52.81% 29 2020-10-01 00:34:41 2020-10-01 00:35:19
Zoka 13 11 75
9,243h +46h 25m 47 489 39.47% 2 2020-09-30 22:43:05 2020-09-30 22:43:27
B L Λ N K B A N S H Σ Σ 9 35 82
8,388h +38h 26m 673 4,131 41.65% 24 2020-09-30 21:44:59 2020-09-30 21:45:59
arno 10 8 1 2020-09-30 21:22:24 2020-09-30 21:22:27
Dactylifera L. 6 5 74 2020-09-30 21:21:46 2020-09-30 21:21:48
oK 2 77
3,307h +36h 9m 126 59,043 91.2% 69 2020-09-30 19:56:28 2020-09-30 19:57:54
iancanellas08 2 1 2020-09-30 19:51:27 2020-09-30 19:51:31
BringMeDown 9 9 8
1,670h +57h 22m 47 560 20.41% 2020-09-30 19:33:09 2020-09-30 19:33:54
dforex 5 130
2,139h +116h 16m 52 630 19.4% 2020-09-30 19:07:32 2020-09-30 19:07:59
Владислав 7 52 16
6,291h +96h 27m 155 3,007 83.87% 39 2020-09-30 18:19:20 2020-09-30 18:19:47
Waff 3 12 15 2020-09-30 18:05:42 2020-09-30 18:05:45
Whizzam! 10 22 18
1,978h +79h 11m 587 1,483 20.5% 5 2020-09-30 17:28:44 2020-10-01 03:18:07
Waffle 1 2 2
445h 59m +16h 28m 13 135 35.12% 2020-09-30 17:05:35 2020-09-30 22:02:04
Tempest 11 14
6,049h +27h 57m 398 1,821 26.23% 1 2020-09-30 16:24:59 2020-09-30 16:25:46
President Nulagi 9 6 4
1,485h +16h 16m 17 154 42.92% 2020-09-30 16:18:41 2020-09-30 16:54:18
CedGames 3 30 41
3,732h +57h 5m 94 441 22.02% 2020-09-30 16:07:33 2020-09-30 16:07:56
ItsJarl 8 97 75
5,069h +8h 22m 1,238 1,077 16.08% 2020-09-30 15:54:39 2020-09-30 15:55:40
Sasuto10 8 7 13
465h 41m +27h 25m 17 112 29.16% 2020-09-30 15:46:04 2020-09-30 15:46:27
SfarculetulMagic 2 35 22
2,495h +14h 28m 42 422 51.55% 5 2020-09-30 15:27:19 2020-09-30 15:27:41
Skessan 4 19 21
3,334h +80h 40m 1,107 2,104 69.29% 51 2020-09-30 15:20:07 2020-09-30 16:29:13
rakomVkitay 11 20 40
5,743h +24h 35m 122 820 22.07% 2020-09-30 14:40:49 2020-09-30 14:41:13
DomineerBeer 6 20 30
3,284h +26h 27m 495 1,976 24.01% 2 2020-09-30 14:39:20 2020-09-30 14:40:11
Alex the lion 8 20 56
3,632h +82h 9m 202 1,330 23.53% 2 2020-09-30 14:37:52 2020-09-30 14:38:25
kurtisc 11 25 34
2,848h +45h 26m 310 1,709 48.56% 24 2020-09-30 14:30:48 2020-09-30 14:31:25
benbeno 3 70 30
3,147h +29h 28m 395 2,378 19.96% 1 2020-09-30 14:17:25 2020-09-30 14:18:13
[fll.fi] beil 9 36 57
7,742h +24h 51m 196 1,911 29.77% 1 2020-09-30 13:34:53 2020-09-30 18:55:39
SEGROB 6 6 15
548h 0m +4h 12m 91 270 14.69% 1 2020-09-30 13:04:22 2020-09-30 13:04:49
arromoG 4 115 45
2,600h +70h 17m 156 1,726 46.62% 15 2020-09-30 11:45:26 2020-09-30 11:45:52
Head Shot! 12 9 14 2020-09-30 11:38:42 2020-09-30 11:41:08
Anon-chan 2 2 2 2020-09-30 11:13:27 2020-09-30 11:13:31
Czenir 8 79 76
9,314h +85h 58m 1,294 10,555 55.82% 24 2020-09-30 11:09:09 2020-10-01 06:47:50
Maddie 11 58 254
11,744h +41h 55m 675 3,410 30.09% 10 2020-09-30 10:25:57 2020-09-30 21:07:36
CoreyEMTP 7 25 25
1,272h + 0m 2,202 344 53.9% 3 2020-09-30 10:05:25 2020-09-30 10:06:56
-魔- 👻 5 43 175
5,556h +26h 37m 196 2,708 61.2% 31 2020-09-30 08:18:50 2020-09-30 08:19:29
Frostaffy 8 23 18
10,862h +81h 12m 621 1,862 16.84% 2020-09-30 07:30:12 2020-09-30 09:39:07
LuxChen 6 80 109
4,382h +16h 56m 827 3,854 28% 14 2020-09-30 05:53:15 2020-09-30 05:54:14
别叫我塞尔达 7 10 7
2,048h +8h 24m 141 698 27.81% 3 2020-09-30 05:50:05 2020-10-01 09:33:21
Osama 6 15 100
2,979h +39h 44m 77 480 30.45% 2020-09-30 05:34:13 2020-09-30 05:34:37
Vert 13 30 110
299 80 69.8% 2020-09-30 05:26:02 2020-09-30 05:26:29
? 7 33 86
2,942h +51h 11m 569 4,252 22.95% 3 2020-09-30 05:16:57 2020-09-30 05:17:37
WootZ 2 28
1,007h +143h 49m 108 1,459 62.48% 31 2020-09-30 05:02:31 2020-10-01 06:36:05
🚬乡✪CHOUDHARY BHAI乡🚬 0 14 224
718h 12m +105h 37m 13 162 19.21% 2020-09-30 04:42:33 2020-09-30 04:42:53
JcChan 9 24 12
5,949h +121h 31m 337 14,791 99.99% 258 2020-09-30 03:07:19 2020-09-30 03:08:30
Gho§tmark™ 13 39 204
10,334h + 19m 1,157 4,286 15.19% 2020-09-30 01:33:27 2020-09-30 01:34:30
汤之介君 3 30 18
2,299h +44h 35m 100 581 32.03% 1 2020-09-30 01:18:21 2020-09-30 01:18:48
TheCoelho 7 42 56
2,363h +29h 50m 419 1,743 52.63% 17 2020-09-30 00:40:46 2020-09-30 23:53:57
godzilla! 9 13 28 2020-09-29 23:59:16 2020-09-29 23:59:21
Kush 0
748h 11m +188h 49m 4 30 11.01% 2020-09-29 23:29:47 2020-09-29 23:30:25
Evets 9 6 6 2020-09-29 21:46:53 2020-09-29 21:46:56
Amkato 8 27 11
1,778h +3h 8m 73 25,443 83.61% 36 2020-09-29 20:50:19 2020-09-29 20:51:04
Maxell_Rus 8 157 910
9,019h +23h 17m 398 5,329 54.98% 24 2020-09-29 20:13:08 2020-09-29 20:13:58
sweetasspickles 7 38 61
3,536h +1h 0m 513 2,757 32.74% 10 2020-09-29 19:55:21 2020-09-29 19:56:16
Vaedrin 10 30 26 2020-09-29 19:38:39 2020-09-29 19:38:44
art128 10 11
15,115h +4h 56m 214 1,361 41.63% 11 2020-09-29 19:01:44 2020-09-29 19:02:11
|T.Z|™ Soviet Garfielf 1 20 92
2,029h +49h 41m 183 805 51.32% 9 2020-09-29 19:00:02 2020-09-29 19:00:28
burger 6 32 209
5,402h +29h 18m 358 1,618 20.05% 2 2020-09-29 18:57:19 2020-09-29 18:57:59
Fanahamed 16 34
69 2020-09-29 18:54:47 2020-09-29 18:55:30
Downiel 4 52 75
3,930h +29h 8m 84 4,775 39.89% 2 2020-09-29 18:50:52 2020-09-29 18:51:33
smetaque 5 17 12
2,503h +5h 18m 285 716 33.03% 1 2020-09-29 17:13:46 2020-09-29 17:14:17
Ðantte169 8 45 76
2,260h +37h 18m 277 1,730 31.1% 7 2020-09-29 16:08:03 2020-09-29 16:08:57
Zhaindam 6 173 39
13,650h +110h 7m 912 12,758 40.94% 30 2020-09-29 15:37:50 2020-09-29 15:39:12
The whisper of the rain 1 38 50
1,294h +30h 30m 37 1,267 47.9% 5 2020-09-29 14:41:35 2020-09-29 14:41:59
Sogeking 12 44 188
7,808h +19h 18m 877 2,320 37.2% 19 2020-09-29 14:17:49 2020-09-30 15:29:19
xfluxez 5 11 44
3,056h +58h 31m 78 549 15.94% 2020-09-29 14:15:06 2020-09-29 14:15:33
Guidyous 7 7 7 2020-09-29 13:40:15 2020-09-29 13:40:18
TamTam 8 69
2,171h + 42m 1,296 13,962 35.79% 34 2020-09-29 12:22:54 2020-09-29 12:56:11
JaseC 14 130 41
18,974h +11h 38m 12,716 2,936 28.28% 11 2020-09-29 12:20:52 2020-09-29 12:34:24
Nibbles von pibbles 6 13 16 2020-09-29 12:20:47 2020-09-29 12:20:49
Motionless 1 8
72h 7m + 0m 141 46 31.78% 2020-09-29 10:44:09 2020-10-01 03:44:22
ChibyKnight 7 15 40 2020-09-29 10:16:20 2020-09-29 10:16:25
zZz💤 8 141 59
77,567h +9,096h 1,095 34,993 63.67% 95 2020-09-29 09:50:54 2020-09-29 09:53:39
❄ S2mle100lesh 185.193.165.77 0 10 41
259h 49m +57h 8m 33 80 12.19% 2020-09-29 09:37:05 2020-09-29 09:37:28
TrentexTech 6 160 20
4,710h +442h 38m 1,744 30,778 51% 38 2020-09-29 08:43:50 2020-09-30 21:13:44
Mtyz 12 60 33
9,174h +22h 45m 2,126 4,995 27.79% 13 2020-09-29 07:31:32 2020-09-29 07:34:02
Sam 5 48 32
3,111h +72h 6m 135 1,518 54.82% 11 2020-09-29 07:30:07 2020-09-29 07:30:36
Cydewinder 13 61 2020-09-29 07:24:42 2020-09-29 07:24:45
Welsevuul 4 58 20
6,629h +37h 20m 446 40,038 98.58% 267 2020-09-29 06:49:43 2020-10-01 09:40:56
Conrad 12 45 74
15,228h +154h 13m 888 7,385 87.55% 199 2020-09-29 05:19:10 2020-09-30 14:54:36
JagatiNatha 7 51 32
4,995h +18h 58m 285 3,057 47.61% 22 2020-09-29 04:59:28 2020-09-29 05:00:06
𝐲𝐋𝐮𝐢𝐳 夢 3 34 2020-09-29 04:35:40 2020-09-29 04:35:44
Holop 6 123 81
8,244h +69h 35m 106 2,814 34.79% 1 2020-09-29 04:18:42 2020-09-29 04:19:08
Swegginton 3